Temp
10 7 8 8 7 8 7 7 7 9 10 9 11 10 10 10 10 9 10 11 11 9 10 11 11 11 9 11 11 11 11 10 10 10 10 10 10 10 10 10 10 11 11 11
8 9 10 8 9 9 9 8 8 8 10 9 9 10 10 9 10 10 11 11 11 10 10 11 10 9 8 8 10 10 10 10 10 10 10 10 10 10 10 10 10 11 11 11
9 10 9 9 9 8 8 8 8 8 8 10 8 9 9 10 10 11 11 11 10 11 10 11 11 9 9 9 9 10 10 10 10 10 10 10 10 10 10 10 10 11 11 11
8 10 9 9 10 8 7 9 8 7 8 8 7 8 9 8 11 10 11 11 12 12 11 11 12 11 9 9 10 10 10 10 10 10 10 10 11 11 12 12 12 12 11 11
11 9 8 9 10 8 8 7 8 9 8 8 7 7 9 9 9 9 10 10 12 11 11 11 11 10 10 9 10 10 10 10 10 10 11 11 11 12 12 12 11 11 11 11
8 10 9 10 8 9 8 8 8 6 6 6 7 6 8 9 9 10 10 11 10 11 10 10 10 10 10 11 10 10 11 10 10 10 10 10 11 11 11 11 11 11 11 11
7 9 9 9 8 8 7 5 5 6 5 7 6 6 9 8 9 10 9 11 10 11 11 10 10 10 10 11 10 11 11 11 11 10 10 10 10 11 10 11 11 11 11 11
6 7 9 9 10 9 7 7 4 8 6 6 6 9 9 9 9 10 11 11 11 10 10 10 11 11 11 11 11 12 12 13 11 11 10 10 10 10 10 10 10 10 11 11
7 8 8 9 9 8 9 6 7 6 6 5 6 8 9 10 10 10 11 12 12 13 12 12 11 10 10 11 11 11 12 12 12 11 11 11 11 10 10 9 9 10 11 11
9 6 8 8 9 9 9 8 7 4 7 7 6 5 6 10 10 9 8 11 12 12 13 13 12 12 12 11 10 10 10 11 11 11 10 10 10 10 10 10 9 9 9 10
8 7 7 8 8 8 6 7 6 5 5 6 5 6 6 9 7 8 9 10 10 11 12 12 12 12 12 12 12 11 10 10 10 10 10 10 10 10 9 9 9 9 8 9
8 5 5 8 8 7 8 8 6 5 6 4 5 5 7 7 6 7 8 9 10 11 11 11 11 11 11 11 11 11 10 10 10 9 9 9 9 9 9 9 9 9 9 8
8 6 5 7 8 8 9 9 7 5 4 5 5 5 7 7 7 7 7 8 9 10 11 11 11 11 11 11 11 10 10 9 9 9 8 9 9 8 8 9 9 9 9 9
9 5 6 5 7 7 6 7 7 6 3 4 4 6 7 5 5 5 5 7 8 9 9 10 10 10 10 10 10 9 9 9 9 9 8 9 9 8 8 7 7 8 8 9
7 6 3 4 5 5 5 5 4 3 4 5 5 5 3 3 3 4 3 5 6 6 7 7 8 8 9 9 9 9 9 8 8 9 9 8 8 7 7 7 7 8 8 7
4 5 5 4 5 4 5 5 4 4 4 4 4 4 2 2 2 3 1 2 2 2 4 5 6 7 8 8 8 8 9 9 9 9 9 8 8 7 7 7 7 7 7 6
4 4 4 5 5 5 5 8 5 3 1 2 3 1 0 0 0 1 0 1 0 1 2 3 4 5 6 7 7 8 8 9 9 9 9 9 8 7 6 6 6 6 6 6
4 3 3 3 5 4 4 2 3 0 -0 0 1 0 -1 -1 -2 1 -0 0 -1 -1 -1 1 1 4 6 6 6 7 7 8 8 8 8 8 7 7 7 6 6 5 5 5
3 3 3 4 3 5 4 2 2 2 -1 -2 -3 -2 -3 -2 -2 3 3 -2 -4 -3 -3 -2 -2 -1 1 4 5 5 6 6 6 7 7 7 6 6 5 6 5 4 4 4
2 2 3 2 3 4 1 -1 -0 0 1 -4 -4 -4 -4 -5 -3 -1 -4 -5 -5 -5 -5 -2 -0 -1 0 2 2 2 4 4 5 6 6 6 5 5 5 4 3 3 3 3
2 1 2 2 2 2 -4 -3 -1 3 -2 -5 -5 -5 -6 -5 -6 -6 -6 -5 -5 -7 -5 -5 -5 -4 -1 -0 0 1 2 3 4 4 5 5 5 5 4 4 3 2 2 2
4 3 2 1 2 2 -5 -3 -1 -6 -6 -6 -7 -7 -8 -8 -8 -8 -8 -9 -8 -7 -5 -7 -7 -6 -5 -4 -4 -2 -1 1 2 3 4 5 4 4 3 4 3 2 1 1
2 -1 -0 -1 -2 -5 -7 -7 -7 -8 -8 -8 -9 -9 -9 -9 -9 -9 -9 -9 -9 -9 -8 -7 -7 -7 -7 -7 -6 -5 -4 -3 -1 1 2 4 4 3 2 3 3 1 1 -0
-4 -6 -2 -3 -5 -6 -7 -8 -9 -9 -9 -10 -10 -9 -10 -10 -10 -10 -10 -10 -10 -9 -9 -9 -9 -8 -7 -6 -6 -7 -5 -4 -3 -1 2 3 3 2 1 2 1 1 -0 -1
-6 -6 -6 -5 -7 -5 -6 -8 -9 -9 -10 -10 -10 -9 -10 -11 -10 -11 -10 -10 -10 -10 -10 -10 -10 -9 -9 -8 -7 -6 -5 -4 -3 -2 -0 2 2 0 0 1 1 0 -0 -1
-8 -10 -9 -7 -8 -9 -8 -9 -9 -9 -9 -9 -10 -9 -9 -10 -10 -11 -10 -10 -10 -11 -11 -10 -9 -9 -8 -8 -7 -7 -6 -5 -4 -3 -1 -1 1 -0 -0 -0 -1 -2 -3 -3
Height
1505 1510 1511 1505 1502 1501 1500 1498 1493 1479 1473 1474 1469 1468 1463 1462 1463 1465 1464 1466 1469 1473 1472 1473 1480 1486 1488 1488 1493 1498 1500 1504 1507 1509 1512 1514 1516 1521 1524 1527 1530 1532 1534 1536
1510 1510 1502 1500 1496 1496 1492 1493 1490 1480 1473 1474 1470 1466 1463 1461 1463 1464 1464 1465 1468 1475 1475 1471 1477 1478 1484 1487 1492 1497 1499 1501 1504 1507 1511 1513 1516 1519 1523 1525 1527 1529 1531 1533
1513 1505 1500 1499 1498 1497 1493 1492 1490 1490 1478 1472 1473 1471 1470 1465 1466 1465 1468 1468 1468 1467 1471 1468 1466 1481 1486 1491 1492 1496 1499 1500 1502 1506 1509 1512 1514 1517 1519 1521 1523 1525 1528 1530
1511 1503 1503 1500 1497 1499 1500 1488 1488 1487 1485 1489 1481 1488 1474 1474 1467 1468 1468 1468 1470 1470 1470 1468 1472 1476 1487 1492 1491 1493 1495 1497 1501 1504 1505 1507 1508 1511 1513 1517 1521 1523 1524 1526
1510 1506 1505 1503 1498 1498 1495 1488 1487 1484 1486 1488 1488 1494 1483 1475 1475 1473 1470 1469 1469 1471 1472 1471 1475 1483 1486 1488 1488 1488 1487 1493 1498 1502 1503 1504 1505 1508 1512 1515 1518 1519 1520 1522
1512 1506 1505 1503 1497 1496 1491 1488 1488 1492 1494 1506 1500 1502 1494 1487 1484 1477 1474 1471 1468 1470 1472 1473 1478 1483 1486 1485 1487 1487 1488 1487 1493 1498 1500 1502 1503 1506 1508 1511 1513 1515 1517 1518
1517 1508 1505 1504 1501 1495 1496 1500 1516 1513 1515 1512 1502 1503 1494 1487 1483 1480 1477 1475 1474 1474 1475 1477 1480 1481 1482 1482 1484 1485 1486 1487 1489 1493 1496 1499 1500 1502 1505 1508 1509 1510 1512 1513
1538 1530 1511 1508 1509 1510 1510 1511 1529 1517 1524 1521 1503 1499 1494 1485 1483 1482 1483 1483 1482 1483 1481 1480 1478 1480 1480 1480 1483 1483 1483 1483 1487 1489 1491 1493 1495 1497 1500 1503 1504 1506 1506 1510
1535 1526 1512 1509 1510 1511 1509 1520 1515 1520 1522 1527 1515 1501 1488 1484 1483 1484 1484 1483 1483 1482 1482 1479 1481 1479 1480 1479 1480 1480 1480 1482 1485 1486 1487 1488 1490 1491 1493 1494 1498 1500 1503 1505
1528 1535 1516 1512 1509 1511 1510 1514 1520 1528 1525 1522 1519 1517 1510 1489 1488 1486 1484 1484 1483 1482 1482 1482 1482 1480 1479 1478 1476 1476 1480 1480 1481 1483 1483 1483 1484 1485 1487 1489 1490 1491 1496 1498
1528 1533 1523 1515 1516 1518 1519 1517 1522 1528 1532 1533 1539 1518 1500 1494 1495 1494 1488 1486 1482 1480 1478 1477 1476 1475 1477 1475 1476 1475 1474 1476 1478 1479 1478 1478 1478 1479 1480 1482 1483 1484 1486 1489
1529 1535 1538 1522 1516 1517 1517 1517 1525 1534 1534 1539 1537 1527 1498 1497 1496 1493 1486 1483 1480 1477 1476 1474 1473 1472 1474 1473 1473 1473 1474 1474 1474 1473 1472 1472 1472 1472 1474 1473 1474 1474 1477 1478
1527 1535 1542 1525 1520 1517 1516 1516 1521 1530 1534 1535 1537 1521 1496 1497 1495 1493 1492 1487 1482 1478 1474 1473 1472 1472 1471 1471 1471 1471 1471 1470 1470 1469 1467 1466 1466 1465 1465 1466 1468 1468 1470 1471
1525 1533 1532 1542 1523 1524 1523 1520 1520 1525 1540 1530 1525 1510 1505 1508 1507 1498 1491 1486 1484 1483 1481 1479 1476 1473 1473 1472 1472 1470 1468 1465 1465 1464 1462 1460 1459 1459 1459 1459 1460 1461 1461 1463
1526 1529 1534 1529 1525 1524 1520 1517 1521 1526 1520 1522 1513 1515 1518 1515 1512 1507 1501 1490 1487 1487 1485 1484 1483 1480 1478 1475 1472 1468 1467 1466 1465 1462 1458 1456 1454 1454 1453 1454 1454 1454 1453 1453
1527 1527 1526 1527 1519 1520 1516 1509 1511 1514 1514 1514 1511 1514 1520 1516 1511 1506 1502 1497 1493 1491 1488 1485 1482 1479 1478 1476 1475 1472 1469 1466 1462 1459 1456 1452 1450 1448 1448 1447 1448 1448 1448 1449
1529 1530 1530 1524 1520 1517 1511 1500 1504 1515 1521 1519 1519 1527 1524 1518 1513 1508 1503 1497 1497 1494 1490 1486 1482 1479 1476 1473 1470 1467 1465 1461 1458 1456 1453 1450 1446 1444 1444 1443 1444 1443 1444 1444
1521 1526 1528 1528 1520 1526 1515 1508 1507 1518 1525 1526 1525 1526 1526 1521 1514 1508 1508 1500 1498 1494 1488 1484 1480 1475 1473 1470 1467 1463 1460 1457 1454 1451 1447 1445 1443 1440 1438 1438 1439 1439 1438 1436
1516 1523 1527 1525 1528 1512 1512 1514 1516 1517 1529 1531 1531 1528 1524 1516 1509 1505 1502 1503 1502 1496 1490 1485 1480 1474 1467 1463 1460 1456 1452 1450 1447 1444 1442 1440 1438 1435 1433 1431 1430 1431 1430 1430
1514 1519 1523 1528 1524 1514 1516 1517 1518 1519 1520 1533 1532 1528 1523 1517 1510 1503 1497 1495 1490 1490 1485 1476 1470 1465 1460 1457 1453 1448 1445 1442 1439 1437 1435 1433 1431 1429 1427 1425 1424 1423 1423 1423
1521 1525 1524 1524 1521 1513 1526 1518 1512 1510 1530 1532 1530 1528 1525 1523 1522 1511 1503 1490 1486 1482 1474 1470 1465 1459 1452 1447 1444 1438 1434 1431 1431 1428 1425 1424 1422 1420 1419 1417 1414 1415 1414 1415
1512 1518 1522 1523 1522 1515 1525 1519 1522 1540 1533 1531 1525 1522 1520 1518 1513 1506 1500 1494 1487 1477 1464 1462 1455 1448 1444 1442 1438 1430 1425 1423 1420 1417 1415 1412 1412 1410 1409 1408 1407 1407 1408 1409
1518 1525 1523 1525 1526 1533 1533 1533 1536 1535 1532 1530 1527 1522 1518 1513 1508 1503 1496 1489 1482 1475 1470 1462 1451 1441 1437 1434 1431 1421 1415 1414 1410 1407 1403 1401 1401 1401 1400 1399 1399 1400 1401 1402
1526 1527 1524 1527 1532 1532 1533 1534 1534 1532 1530 1528 1524 1521 1515 1512 1508 1502 1495 1489 1481 1474 1466 1459 1450 1440 1429 1424 1418 1413 1408 1405 1401 1396 1392 1392 1391 1391 1391 1390 1391 1392 1393 1395
1530 1529 1531 1528 1529 1527 1530 1530 1531 1530 1529 1526 1521 1516 1513 1510 1506 1500 1493 1486 1479 1472 1464 1456 1447 1438 1428 1420 1410 1403 1396 1393 1390 1386 1383 1381 1380 1381 1382 1382 1383 1384 1386 1387
1533 1534 1534 1532 1534 1535 1533 1532 1531 1528 1525 1521 1518 1514 1511 1507 1502 1496 1490 1484 1478 1470 1462 1454 1446 1436 1425 1415 1406 1397 1390 1383 1379 1377 1374 1372 1371 1371 1374 1375 1375 1377 1379 1382
Wind_Speed
4 5 4 8 4 6 5 4 6 7 2 6 2 5 7 7 4 7 10 9 9 9 10 4 10 21 33 29 25 25 25 24 23 25 25 25 25 22 22 21 21 21 20 20
6 3 4 7 4 4 4 4 7 9 4 2 6 8 4 4 2 4 9 10 10 11 14 12 8 20 30 33 31 26 25 25 25 25 25 24 23 23 22 21 22 23 23 22
3 5 8 5 5 8 5 4 5 5 9 1 6 5 6 3 5 0 2 5 14 13 15 13 13 7 12 23 23 25 25 25 26 26 25 23 22 22 24 25 26 25 24 23
5 4 5 7 4 2 5 1 5 6 5 3 6 3 6 6 1 2 4 2 8 12 16 16 14 18 21 17 16 18 20 22 25 26 27 26 27 27 26 25 24 24 25 26
5 7 7 5 6 2 8 7 3 2 2 3 11 5 6 4 8 6 4 8 10 13 15 20 21 22 24 18 17 8 17 20 23 27 27 27 27 27 25 25 25 25 26 27
5 6 2 3 7 3 11 4 4 3 2 4 5 3 6 4 4 6 6 14 4 15 18 22 21 21 23 18 20 12 13 24 24 26 29 30 29 29 29 28 27 28 28 27
7 5 6 3 7 6 10 8 4 6 5 2 5 4 5 6 4 3 6 13 12 8 11 22 25 26 23 20 19 18 12 14 25 28 31 32 32 32 32 32 30 30 30 31
4 9 7 7 2 3 4 3 3 1 3 5 7 5 4 4 6 6 12 16 16 10 2 12 13 18 24 25 23 19 15 10 22 25 30 32 33 34 35 36 34 34 33 32
4 6 5 1 2 2 5 5 1 2 1 2 4 5 7 4 5 8 13 19 19 16 12 9 8 13 17 20 24 26 23 22 23 23 26 28 27 33 37 37 38 37 35 33
1 5 1 6 3 2 3 2 4 4 4 5 5 5 4 4 6 7 11 24 20 20 13 11 10 9 10 13 17 19 22 27 29 28 31 33 34 35 38 41 41 39 40 38
2 2 7 4 4 2 5 3 5 4 3 2 4 6 4 3 6 8 10 27 26 25 15 16 16 10 6 6 8 11 16 22 28 32 35 35 34 34 37 42 40 40 40 40
1 3 4 7 2 2 1 1 4 3 5 1 2 5 4 4 10 14 25 31 30 20 19 16 15 8 7 8 10 12 13 15 18 23 27 33 35 35 38 40 39 38 36 35
2 1 5 9 4 3 1 0 4 4 3 5 3 5 1 17 26 33 26 29 27 19 18 16 14 12 11 11 12 12 14 17 18 20 23 27 32 36 38 37 38 38 37 37
3 3 7 6 10 0 6 3 3 5 3 3 7 9 12 12 16 28 33 27 18 13 16 18 20 20 18 15 12 10 11 13 16 17 18 21 24 27 31 33 35 37 41 39
3 5 5 6 9 5 9 13 5 8 6 5 4 3 7 14 15 22 26 32 30 31 29 27 25 22 22 22 19 17 16 14 15 16 18 19 19 20 22 26 29 32 35 38
1 4 1 4 9 8 8 14 8 7 4 8 11 1 11 17 21 21 25 31 32 35 35 34 31 27 25 25 25 24 21 19 18 18 19 19 20 19 22 23 25 27 29 32
3 2 3 4 3 7 6 1 4 6 9 3 4 6 17 16 25 24 21 33 31 35 36 37 35 33 31 27 26 27 28 27 25 24 23 23 23 21 20 22 26 26 28 31
6 6 4 4 1 2 2 11 12 16 9 10 8 10 15 20 28 28 14 38 41 40 39 41 40 40 36 31 28 28 27 29 29 28 28 27 26 24 23 23 26 29 31 31
11 4 2 3 3 5 7 4 4 5 5 10 11 13 18 24 26 11 17 39 33 34 38 38 37 41 44 42 39 34 31 29 29 29 30 30 28 28 26 26 25 29 31 33
6 3 3 1 3 5 3 6 13 7 5 13 14 14 20 26 9 9 42 45 45 39 40 46 46 47 45 44 43 43 39 35 30 29 30 29 30 30 29 26 26 26 31 34
3 1 5 4 4 2 8 20 15 4 3 17 16 18 20 12 16 34 39 47 45 44 45 43 42 42 43 43 41 42 41 42 38 37 35 33 32 31 30 28 27 26 28 32
2 2 3 1 3 7 23 5 5 8 13 19 22 22 23 23 28 31 34 35 37 42 47 44 44 44 43 40 39 42 42 40 37 36 38 36 33 32 32 28 27 27 29 31
2 2 2 2 1 8 15 14 5 9 13 17 17 20 20 23 28 32 35 37 37 38 38 41 44 46 43 39 38 43 44 41 38 34 34 34 32 32 33 29 27 29 29 32
2 7 1 3 6 6 10 9 14 13 10 12 13 14 17 20 23 27 31 31 35 37 40 41 41 42 45 43 42 40 40 39 36 36 31 32 31 32 33 30 29 29 31 34
1 5 1 3 5 7 11 18 16 13 11 13 14 18 18 17 20 23 29 30 32 36 36 38 39 41 42 41 42 41 41 34 35 37 30 29 30 31 32 32 31 31 32 34
3 1 2 1 3 3 6 13 12 13 15 17 18 20 20 20 22 23 28 30 31 33 35 37 37 39 41 40 40 37 35 30 29 32 31 28 29 31 33 33 32 31 30 30
Wind_Direction
359 40 331 295 238 246 254 261 282 296 272 360 264 266 274 246 201 195 220 229 233 169 141 148 230 264 206 195 198 202 202 200 201 199 200 199 202 204 210 214 218 218 217 213
7 312 276 289 263 320 293 298 315 299 270 319 340 293 306 205 305 210 230 242 226 200 170 151 177 201 203 194 196 203 208 210 211 213 211 210 208 212 214 219 221 221 221 221
216 267 328 351 327 352 329 247 293 263 315 44 352 0 1 344 15 304 282 233 187 180 181 138 91 202 189 230 204 208 212 214 214 215 214 215 214 218 221 222 221 221 221 221
250 306 335 327 321 41 312 170 289 301 16 340 24 350 359 348 27 268 237 240 178 185 183 164 161 166 211 200 234 219 213 219 220 218 217 221 222 222 226 228 227 225 224 223
280 336 348 337 301 358 255 331 304 322 64 30 354 64 298 356 24 11 331 270 219 191 208 189 188 197 209 208 208 208 206 218 224 226 226 226 228 234 237 235 231 230 229 228
261 300 294 272 311 283 293 0 42 41 44 37 318 82 332 8 299 330 359 6 299 217 214 211 212 214 217 224 220 246 239 206 222 233 234 233 235 236 237 235 233 234 234 233
331 319 326 350 344 354 12 29 357 10 12 247 332 52 247 307 329 321 336 20 35 195 211 217 214 215 220 217 231 229 238 232 228 226 237 241 242 243 246 246 242 240 238 236
21 334 10 345 54 303 339 63 112 322 344 294 337 5 299 300 338 353 37 36 44 44 243 235 252 244 235 233 235 241 252 251 240 244 239 242 245 248 249 249 248 248 248 248
6 286 314 337 351 76 329 32 198 103 312 346 302 311 318 351 11 25 32 26 20 12 8 3 309 264 263 258 251 245 251 261 261 255 248 255 260 253 252 250 249 250 250 251
236 303 305 294 15 24 84 196 19 12 23 336 320 301 246 347 341 353 12 8 349 348 344 336 320 308 296 276 272 269 262 260 260 267 264 264 265 260 257 258 253 250 249 248
122 123 290 351 38 315 346 28 50 108 97 81 329 285 224 346 41 6 337 339 341 337 338 341 334 292 286 299 291 279 272 266 262 264 266 265 265 269 262 257 259 257 250 248
1 148 297 270 290 258 267 85 99 90 306 90 182 275 338 67 343 343 326 338 344 341 336 346 0 359 319 312 302 299 293 285 280 272 267 266 268 267 269 266 269 253 256 252
178 323 333 338 2 12 89 209 111 95 70 211 172 260 244 6 354 341 334 332 342 342 347 350 358 3 352 333 317 299 295 297 290 281 276 269 263 264 265 269 267 262 263 259
170 179 179 208 264 249 298 257 190 137 166 221 231 274 338 351 348 345 342 346 347 5 16 20 19 17 15 15 9 352 341 334 321 309 295 285 277 273 271 269 266 272 269 261
144 246 173 249 273 264 267 272 225 192 205 213 242 153 353 349 344 349 7 28 33 27 24 19 12 7 6 0 353 348 346 342 334 336 328 311 299 280 275 275 274 274 275 271
28 271 116 253 254 273 273 283 251 222 221 243 272 301 356 346 348 1 13 18 15 7 5 5 6 5 1 356 351 345 336 325 323 328 327 322 312 309 283 274 277 276 275 275
192 200 11 287 353 309 298 93 114 100 50 326 53 358 343 346 344 339 4 11 3 353 349 346 345 345 345 342 340 337 336 331 322 318 320 322 316 302 289 282 276 271 270 271
197 152 166 248 11 286 36 56 97 104 72 37 29 360 341 328 323 321 359 358 346 342 338 334 331 326 324 323 324 320 317 316 312 308 307 309 309 302 290 278 276 272 268 266
201 132 221 219 211 302 142 37 21 48 81 32 358 340 336 340 331 314 319 333 335 330 326 324 320 318 315 312 308 304 305 303 303 300 300 303 301 298 289 280 274 275 271 263
107 93 144 154 223 241 33 327 316 278 190 10 352 343 344 343 334 309 324 329 326 325 324 322 316 313 311 310 309 307 301 294 290 292 299 303 296 292 289 280 275 272 269 262
103 101 217 239 263 273 336 316 326 196 344 339 343 338 337 330 305 308 319 323 325 326 327 326 322 316 312 309 308 304 300 297 291 287 288 293 292 286 284 281 275 271 263 258
153 171 214 186 267 261 355 5 44 332 326 334 335 335 327 319 318 322 325 325 326 329 331 333 327 322 319 313 307 299 296 294 295 293 286 282 282 280 274 276 274 267 260 253
218 256 204 203 49 95 62 92 47 339 324 331 332 334 337 330 332 331 329 330 330 331 335 335 329 323 320 317 311 302 295 294 294 291 288 280 279 275 266 268 267 259 253 249
105 12 207 193 159 119 92 59 12 7 353 338 342 335 340 331 333 329 332 330 332 337 334 332 334 331 326 323 319 307 303 298 293 293 283 280 278 272 263 263 262 255 249 243
338 341 356 273 17 28 176 6 359 7 9 7 6 8 359 343 338 337 339 337 338 338 334 337 336 334 331 333 325 322 314 303 288 293 287 273 275 272 263 260 260 257 253 248
10 192 158 224 18 285 292 333 346 5 7 7 3 3 8 3 355 350 350 351 347 340 347 346 346 346 344 341 337 334 330 311 288 287 289 282 275 270 262 255 250 247 246 242